Flag for U.S.A. Weather past 2 weeks in Acworth, Georgia, U.S.A.

Now
68 °F

Fog.


Feels Like: 68 °F
Forecast: 68 / 89 °F
Wind: No wind

Location: Cartersville Airport

Current Time: Jul 7, 2015 at 3:50:40 AM

Latest Report: Jul 7, 2015 at 2:53 AM


Visibility: 3 mi

Pressure: 30.09 "Hg

Humidity: 96%

Dew point: 67 °F

Location of AcworthLocation

Historic Weather in Acworth — Graph

°F

Acworth temperature yesterday

Maximum temperature yesterday: 84 °F (at 1:53 PM)
Minimum temperature yesterday: 68 °F (at 1:53 AM)
Average temperature yesterday: 75 °F

Past Weeks' High & Low Weather Summary

 TemperatureHumidityPressure
High94 °F (Jun 22, 3:53 PM)97% (Jun 25, 2:53 AM)30.16 "Hg (Jun 25, 2:53 AM)
Low57 °F (Jun 29, 5:53 AM)37% (Jun 28, 4:53 PM)29.82 "Hg (Jun 27, 6:53 PM)
Average76 °F78%30.00 "Hg
* Reported Jun 22 2:53 AM — Jul 7 2:53 AM, Acworth, Weather by CustomWeather, © 2015

Note: Actual official high and low records may vary slightly from our data, if they occured in-between our weather recording intervals... More about our weather records

Advertising

Acworth weather history for previous 24 hours

 ConditionsComfort  
Time TempWeatherWind HumidityBarometerVisibility
2:53 AM
Tue, Jul 7
68 °FFog.No wind96%30.09 "Hg3 mi
1:53 AM69 °FFog.No wind93%30.10 "Hg4 mi
1:00 AM69 °FFog.No wind93%30.14 "Hg3 mi
11:53 PM
Mon, Jul 6
70 °FFog.No wind93%30.10 "Hg6 mi
10:53 PM73 °FFog.No wind90%30.08 "Hg4 mi
9:53 PM72 °FScattered clouds.No wind93%30.06 "Hg10 mi
8:53 PM76 °FPassing clouds.No wind85%30.05 "Hg10 mi
7:53 PM81 °FScattered clouds.No wind69%30.06 "Hg10 mi
6:53 PM81 °FPartly sunny.No wind69%30.06 "Hg10 mi
5:53 PM83 °FPartly sunny.No wind63%30.06 "Hg10 mi
4:53 PM83 °FBroken clouds.No wind61%30.07 "Hg10 mi
3:53 PM83 °FMostly cloudy.N/A61%30.09 "Hg10 mi
2:53 PM83 °FCloudy.3 mph63%30.11 "Hg10 mi
1:53 PM84 °FScattered clouds.No wind61%30.12 "Hg10 mi
12:53 PM81 °FScattered clouds.3 mph69%30.13 "Hg10 mi
11:53 AM77 °FMore clouds than sun.No wind79%30.15 "Hg10 mi
10:53 AM75 °FCloudy.No wind85%30.16 "Hg10 mi
9:53 AM73 °FLow clouds.No wind88%30.15 "Hg10 mi
8:53 AM72 °FLow clouds.No wind93%30.14 "Hg8 mi
7:53 AM71 °FLow clouds.No wind93%30.13 "Hg9 mi
6:53 AM70 °FMostly cloudy.No wind93%30.11 "Hg10 mi
5:53 AM69 °FFog.No wind93%30.09 "Hg6 mi
4:53 AM69 °FPassing clouds.No wind93%30.07 "Hg7 mi
3:53 AM69 °FFog.No wind93%30.06 "Hg6 mi
Weather by CustomWeather, © 2015

See weather overviewHow to use our weather pages